DW6386 Weather Reports


Display with metric or nautical units.
time (UTC)temp
F
wind
direction
speed
MPH
gust
MPH
rain 1hr
in
rain 24hr
in
rain mn
in
humidity
%
barometer
mb
20260508041557 47 106 0.0 0.0 0.00 0.08 0.00 83 1015.1
20260508040057 49 106 0.0 0.0 0.00 0.08 0.08 81 1014.8
20260508034554 49 106 0.0 0.0 0.00 0.08 0.08 81 1014.9
20260508033057 49 106 0.0 0.0 0.00 0.08 0.08 81 1014.8
20260508031555 50 106 0.0 0.0 0.00 0.08 0.08 82 1014.9
20260508030054 50 106 0.0 0.0 0.00 0.13 0.08 80 1014.8
20260508024611 51 106 0.0 0.0 0.00 0.13 0.08 78 1014.6
20260508023041 51 143 0.0 0.0 0.00 0.13 0.08 79 1014.4
20260508021543 51 143 0.0 0.0 0.00 0.13 0.08 78 1014.3
20260508020046 52 143 0.0 0.0 0.00 0.13 0.08 78 1014.3
20260508014538 52 165 0.0 0.0 0.00 0.13 0.08 79 1013.9
20260508013034 53 165 0.0 0.0 0.00 0.13 0.08 79 1013.7
20260508011533 53 167 0.0 0.0 0.00 0.13 0.08 79 1013.5
20260508010030 54 168 0.0 0.0 0.00 0.13 0.08 75 1013.3
20260508004539 56 167 0.0 0.0 0.00 0.13 0.08 72 1013.0
20260508003026 57 167 0.0 0.0 0.00 0.13 0.08 69 1012.9
20260508001533 58 168 0.0 0.0 0.00 0.13 0.08 69 1012.6
20260508000024 59 168 0.0 0.0 0.00 0.16 0.08 65 1012.4
20260507234528 60 168 0.0 0.0 0.00 0.16 0.08 64 1012.2
20260507233024 62 129 0.0 5.0 0.00 0.16 0.08 65 1012.1
20260507231524 63 110 0.0 0.0 0.00 0.16 0.08 63 1012.2
20260507230022 63 115 0.0 3.0 0.00 0.25 0.08 59 1012.3
20260507224523 64 139 0.0 2.0 0.00 0.25 0.08 57 1012.2
20260507223022 66 212 0.0 2.0 0.00 0.25 0.08 54 1012.1
20260507221521 65 136 0.0 2.0 0.00 0.25 0.08 55 1012.1
20260507220020 66 179 0.0 4.0 0.00 0.28 0.08 54 1012.1
20260507214519 66 185 0.0 2.0 0.00 0.28 0.08 58 1012.1
20260507213027 65 112 0.0 4.0 0.00 0.28 0.08 55 1011.9
20260507211517 67 167 0.0 2.0 0.00 0.28 0.08 60 1011.5
20260507210015 67 164 1.0 4.0 0.00 0.32 0.08 55 1011.5
20260507204513 68 142 0.0 9.0 0.00 0.32 0.08 56 1011.5
20260507203018 69 130 0.0 0.0 0.00 0.32 0.08 52 1011.5
20260507201509 68 110 0.0 2.0 0.00 0.32 0.08 55 1011.6
20260507200006 67 278 0.0 2.0 0.00 0.37 0.08 59 1011.8
20260507194512 69 112 0.0 4.0 0.00 0.37 0.08 52 1011.8
20260507193002 69 23 1.0 5.0 0.00 0.37 0.08 56 1011.9
20260507191559 66 293 0.0 3.0 0.00 0.37 0.08 61 1012.0
20260507184558 66 167 1.0 3.0 0.00 0.37 0.08 61 1012.4
20260507183058 66 201 0.0 4.0 0.00 0.37 0.08 59 1012.2
20260507181557 66 96 0.0 6.0 0.00 0.37 0.08 60 1012.2
20260507180054 66 105 0.0 4.0 0.00 0.37 0.08 64 1012.2
20260507174558 64 167 1.0 5.0 0.00 0.37 0.08 68 1012.3
20260507173125 64 345 0.0 4.0 0.00 0.37 0.08 72 1012.8
20260507171554 64 141 0.0 4.0 0.00 0.37 0.08 65 1012.7
20260507170051 65 146 0.0 3.0 0.00 0.37 0.08 66 1012.7
20260507164549 63 146 1.0 6.0 0.00 0.37 0.08 67 1012.8
20260507163045 62 342 0.0 4.0 0.00 0.37 0.08 76 1012.8
20260507161548 61 184 0.0 5.0 0.00 0.37 0.08 78 1013.0
20260507160038 59 171 0.0 3.0 0.00 0.37 0.08 83 1013.0
20260507154533 57 148 0.0 4.0 0.00 0.37 0.08 86 1012.8
20260507153033 56 137 0.0 0.0 0.00 0.37 0.08 89 1012.9
20260507151532 55 113 0.0 0.0 0.00 0.37 0.08 89 1012.8
20260507150038 55 79 0.0 1.0 0.00 0.43 0.08 90 1012.7
20260507144531 55 127 0.0 0.0 0.00 0.43 0.08 90 1012.8
20260507143033 54 136 0.0 2.0 0.00 0.43 0.08 89 1012.9
20260507141537 54 224 0.0 3.0 0.00 0.43 0.08 90 1012.4
20260507140026 54 156 0.0 2.0 0.00 0.63 0.08 90 1012.3
20260507134524 54 228 0.0 3.0 0.00 0.63 0.08 91 1012.3
20260507133033 54 68 0.0 1.0 0.00 0.63 0.08 92 1012.2
20260507131527 54 146 0.0 0.0 0.00 0.63 0.08 93 1012.1
20260507130023 54 166 0.0 0.0 0.00 0.94 0.08 93 1012.0
20260507124527 54 120 0.0 1.0 0.00 0.94 0.08 93 1012.3
20260507123028 53 226 0.0 0.0 0.00 0.94 0.08 94 1011.9
20260507121518 53 107 0.0 0.0 0.00 0.94 0.08 94 1011.8
20260507120015 53 117 0.0 0.0 0.00 1.05 0.08 95 1011.8
20260507114515 53 131 0.0 0.0 0.00 1.05 0.08 95 1011.2
20260507113015 53 129 0.0 0.0 0.00 1.05 0.08 95 1011.5
20260507111514 53 153 0.0 0.0 0.00 1.05 0.08 95 1010.9
20260507110012 53 191 1.0 4.0 0.00 1.05 0.08 96 1010.5
20260507104511 53 166 0.0 0.0 0.01 1.05 0.08 96 1010.9
20260507103010 53 163 0.0 0.0 0.01 1.05 0.08 96 1010.9
20260507101509 53 200 0.0 5.0 0.01 1.05 0.08 96 1010.9
20260507100006 53 143 0.0 0.0 0.01 1.05 0.08 97 1011.0
20260507094505 53 146 0.0 0.0 0.01 1.04 0.07 97 1011.2
20260507093005 53 129 0.0 1.0 0.01 1.04 0.07 97 1010.6
20260507091505 53 117 0.0 0.0 0.01 1.04 0.07 97 1010.6
20260507090006 53 126 0.0 0.0 0.01 1.04 0.07 97 1010.4
20260507084501 53 126 0.0 0.0 0.01 1.03 0.06 97 1010.8
20260507083100 53 118 0.0 3.0 0.01 1.03 0.06 97 1010.6
20260507081558 54 280 0.0 2.0 0.01 1.03 0.06 97 1010.1
20260507080059 54 164 0.0 0.0 0.01 1.03 0.06 97 1010.1
20260507074557 54 148 0.0 6.0 0.00 1.02 0.05 97 1010.7
20260507073103 54 113 0.0 0.0 0.00 1.02 0.05 97 1010.6
20260507071552 54 181 0.0 2.0 0.00 1.02 0.05 97 1010.4
20260507070057 54 78 0.0 0.0 0.00 1.02 0.05 97 1010.6
20260507064553 54 103 0.0 0.0 0.00 1.02 0.05 97 1010.6
20260507063046 55 116 0.0 2.0 0.00 1.02 0.05 97 1010.9
20260507061545 55 67 0.0 0.0 0.00 1.02 0.05 97 1010.9
20260507060044 55 167 0.0 0.0 0.00 1.02 0.05 97 1010.8
20260507054541 55 181 0.0 0.0 0.02 1.02 0.05 97 1010.9
20260507053040 55 131 0.0 0.0 0.03 1.02 0.05 97 1011.3
20260507051538 56 249 0.0 4.0 0.05 1.02 0.05 97 1011.5
20260507050037 56 174 0.0 5.0 0.05 1.02 0.05 97 1011.7
20260507044537 57 137 0.0 2.0 0.03 1.00 0.03 98 1011.3
20260507043031 57 131 0.0 0.0 0.02 0.99 0.02 98 1011.2